This is the latest recevied weather packets stored in our database for station/object SV2BZQ-1. If no packets are shown the sender has not sent any weather packets the latest 1 day(s).
| Time | Temp. | Humidity | Pressure | Rain* | Wind** | Luminosity | Snow |
|---|---|---|---|---|---|---|---|
| 1777975220 | 23.33° C | 45% | 1013.9 hPa | 0 mm | 0.45 m/s, 150° | - | - |
| 1777975043 | 23.33° C | 45% | 1014.1 hPa | 0 mm | 0.45 m/s, 154° | - | - |
| 1777974952 | 23.33° C | 48% | 1014.1 hPa | 0 mm | 0.45 m/s, 127° | - | - |
| 1777974862 | 22.78° C | 48% | 1014.1 hPa | 0 mm | 0.45 m/s, 196° | - | - |
| 1777974676 | 22.78° C | 47% | 1014.1 hPa | 0 mm | 0.45 m/s, 200° | - | - |
| 1777974549 | 23.33° C | 48% | 1014.1 hPa | 0 mm | 0.45 m/s, 188° | - | - |
| 1777974429 | 23.33° C | 45% | 1014.1 hPa | 0 mm | 0.45 m/s, 143° | - | - |
| 1777974311 | 22.78° C | 45% | 1014.1 hPa | 0 mm | 0.45 m/s, 128° | - | - |
| 1777974203 | 22.78° C | 45% | 1014.3 hPa | 0 mm | 0.45 m/s, 120° | - | - |
| 1777974074 | 22.78° C | 44% | 1014.3 hPa | 0 mm | 0.45 m/s, 119° | - | - |
| 1777974033 | 22.78° C | 44% | 1014.3 hPa | 0 mm | 0.45 m/s, 117° | - | - |
| 1777973958 | 22.78° C | 44% | 1014.3 hPa | 0 mm | 0.45 m/s, 117° | - | - |
| 1777973832 | 23.33° C | 42% | 1014.3 hPa | 0 mm | 0.45 m/s, 117° | - | - |
| 1777973704 | 23.33° C | 42% | 1014.3 hPa | 0 mm | 0.45 m/s, 120° | - | - |
| 1777973577 | 23.33° C | 42% | 1014.3 hPa | 0 mm | 0.45 m/s, 124° | - | - |
| 1777973425 | 23.33° C | 42% | 1014.3 hPa | 0 mm | 0.45 m/s, 100° | - | - |
| 1777973310 | 23.33° C | 41% | 1014.4 hPa | 0 mm | 0 m/s | - | - |
| 1777973190 | 23.33° C | 43% | 1014.4 hPa | 0 mm | 0 m/s | - | - |
| 1777973102 | 23.33° C | 44% | 1014.4 hPa | 0 mm | 0 m/s | - | - |
| 1777972942 | 22.78° C | 44% | 1014.4 hPa | 0 mm | 0 m/s | - | - |
| 1777972840 | 22.78° C | 44% | 1014.4 hPa | 0 mm | 0 m/s | - | - |
| 1777972749 | 22.78° C | 44% | 1014.4 hPa | 0 mm | 0 m/s | - | - |
| 1777972562 | 22.22° C | 44% | 1014.4 hPa | 0 mm | 0 m/s | - | - |
| 1777972434 | 22.22° C | 46% | 1014.5 hPa | 0 mm | 0 m/s | - | - |
| 1777972304 | 22.22° C | 46% | 1014.5 hPa | 0 mm | 0 m/s | - | - |
* Rain latest hour (hover to see other rain measurements)
** Current wind speed in m/s (hover to see current wind gust speed)